| time (UTC) | temp F | wind direction | speed MPH | gust MPH | rain 1hr in | rain 24hr in | rain mn in | humidity % | barometer mb |
| 20260506001526 | 49 | 196 | 0.0 | 0.0 | 0.00 | 0.00 | 0.00 | 1 | 1007.8 |
| 20260506000022 | 49 | 277 | 0.0 | 1.0 | 0.00 | 0.00 | 0.00 | 1 | 1007.8 |
| 20260505233015 | 49 | 281 | 0.0 | 0.0 | 0.00 | 0.00 | 0.00 | 1 | 1008.0 |
| 20260505231518 | 50 | 196 | 0.0 | 0.0 | 0.00 | 0.00 | 0.00 | 1 | 1008.0 |
| 20260505230007 | 50 | 197 | 0.0 | 0.0 | 0.00 | 0.00 | 0.00 | 1 | 1008.1 |
| 20260505223113 | 50 | 217 | 0.0 | 1.0 | 0.00 | 0.00 | 0.00 | 1 | 1008.2 |
| 20260505221600 | 50 | 328 | 0.0 | 0.0 | 0.00 | 0.00 | 0.00 | 1 | 1008.2 |
| 20260505220051 | 51 | 99 | 0.0 | 0.0 | 0.00 | 0.00 | 0.00 | 1 | 1008.2 |
| 20260505213044 | 51 | 214 | 0.0 | 0.0 | 0.00 | 0.00 | 0.00 | 1 | 1008.4 |
| 20260505211548 | 51 | 175 | 0.0 | 0.0 | 0.00 | 0.00 | 0.00 | 1 | 1008.4 |
| 20260505210038 | 52 | 207 | 0.0 | 0.0 | 0.00 | 0.00 | 0.00 | 1 | 1008.5 |
| 20260505203049 | 53 | 195 | 0.0 | 0.0 | 0.00 | 0.00 | 0.00 | 1 | 1008.6 |
| 20260505201531 | 53 | 150 | 0.0 | 0.0 | 0.00 | 0.00 | 0.00 | 1 | 1008.5 |
| 20260505200028 | 54 | 196 | 0.0 | 0.0 | 0.00 | 0.00 | 0.00 | 1 | 1008.4 |
| 20260505193027 | 54 | 165 | 0.0 | 1.0 | 0.00 | 0.00 | 0.00 | 1 | 1008.1 |
| 20260505191524 | 54 | 198 | 0.0 | 0.0 | 0.00 | 0.01 | 0.00 | 1 | 1007.9 |
| 20260505190020 | 55 | 194 | 0.0 | 0.0 | 0.00 | 0.01 | 0.00 | 1 | 1007.7 |
| 20260505183013 | 56 | 165 | 0.0 | 0.0 | 0.00 | 0.01 | 0.00 | 6 | 1007.4 |
| 20260505181509 | 56 | 288 | 0.0 | 0.0 | 0.00 | 0.01 | 0.00 | 6 | 1007.3 |
| 20260505180004 | 57 | 238 | 0.0 | 0.0 | 0.00 | 0.01 | 0.00 | 11 | 1007.3 |
| 20260505174700 | 57 | 241 | 0.0 | 0.0 | 0.00 | 0.01 | 0.00 | 17 | 1007.3 |
| 20260505173059 | 58 | 232 | 0.0 | 1.0 | 0.00 | 0.01 | 0.00 | 21 | 1007.3 |
| 20260505171557 | 58 | 289 | 0.0 | 0.0 | 0.00 | 0.01 | 0.00 | 22 | 1007.4 |
| 20260505170050 | 58 | 78 | 0.0 | 0.0 | 0.00 | 0.01 | 0.00 | 28 | 1007.4 |
| 20260505164647 | 59 | 214 | 0.0 | 2.0 | 0.00 | 0.01 | 0.00 | 28 | 1007.6 |
| 20260505163041 | 60 | 303 | 0.0 | 0.0 | 0.00 | 0.01 | 0.00 | 32 | 1007.6 |
| 20260505161539 | 60 | 169 | 0.0 | 0.0 | 0.00 | 0.01 | 0.00 | 33 | 1007.6 |
| 20260505153027 | 63 | 262 | 0.0 | 0.0 | 0.00 | 0.01 | 0.00 | 47 | 1007.6 |
| 20260505151532 | 64 | 268 | 0.0 | 0.0 | 0.00 | 0.01 | 0.00 | 48 | 1007.7 |
| 20260505124545 | 64 | 208 | 0.0 | 0.0 | 0.00 | 0.01 | 0.00 | 52 | 1008.4 |
| 20260505123042 | 64 | 200 | 0.0 | 2.0 | 0.00 | 0.01 | 0.00 | 52 | 1008.4 |
| 20260505121546 | 64 | 132 | 0.0 | 0.0 | 0.00 | 0.01 | 0.00 | 51 | 1008.4 |
| 20260505120032 | 64 | 126 | 0.0 | 0.0 | 0.00 | 0.01 | 0.00 | 51 | 1008.4 |
| 20260505114529 | 63 | 164 | 0.0 | 0.0 | 0.00 | 0.01 | 0.00 | 48 | 1008.5 |
| 20260505113038 | 63 | 211 | 0.0 | 0.0 | 0.00 | 0.01 | 0.00 | 41 | 1008.6 |
| 20260505111537 | 62 | 163 | 0.0 | 0.0 | 0.00 | 0.01 | 0.00 | 42 | 1008.7 |
| 20260505101520 | 60 | 211 | 0.0 | 0.0 | 0.00 | 0.01 | 0.00 | 8 | 1009.3 |
| 20260505100003 | 58 | 200 | 0.0 | 0.0 | 0.00 | 0.01 | 0.00 | 1 | 1009.3 |
| 20260505094607 | 57 | 215 | 0.0 | 0.0 | 0.00 | 0.01 | 0.00 | 1 | 1009.4 |
| 20260505093057 | 56 | 167 | 0.0 | 0.0 | 0.00 | 0.01 | 0.00 | 1 | 1009.4 |
| 20260505091552 | 56 | 209 | 0.0 | 0.0 | 0.00 | 0.01 | 0.00 | 1 | 1009.4 |
| 20260505090119 | 55 | 198 | 0.0 | 0.0 | 0.00 | 0.01 | 0.00 | 1 | 1009.6 |
| 20260505084544 | 54 | 218 | 0.0 | 0.0 | 0.00 | 0.01 | 0.00 | 1 | 1009.6 |
| 20260505083050 | 54 | 213 | 0.0 | 0.0 | 0.00 | 0.01 | 0.00 | 1 | 1009.5 |
| 20260505081535 | 53 | 155 | 0.0 | 0.0 | 0.00 | 0.01 | 0.00 | 1 | 1009.5 |
| 20260505080034 | 52 | 200 | 0.0 | 0.0 | 0.00 | 0.01 | 0.00 | 1 | 1009.4 |
| 20260505074526 | 52 | 169 | 0.0 | 0.0 | 0.00 | 0.01 | 0.00 | 1 | 1009.5 |
| 20260505073025 | 52 | 51 | 0.0 | 0.0 | 0.00 | 0.01 | 0.00 | 1 | 1009.4 |
| 20260505071519 | 52 | 79 | 0.0 | 1.0 | 0.00 | 0.01 | 0.00 | 1 | 1009.4 |
| 20260505070022 | 52 | 65 | 0.0 | 0.0 | 0.00 | 0.01 | 0.00 | 1 | 1009.6 |
| 20260505064512 | 51 | 200 | 0.0 | 0.0 | 0.00 | 0.01 | 0.00 | 1 | 1009.9 |
| 20260505063008 | 51 | 205 | 0.0 | 0.0 | 0.00 | 0.01 | 0.00 | 1 | 1009.9 |
| 20260505061504 | 51 | 194 | 0.0 | 0.0 | 0.00 | 0.01 | 0.00 | 1 | 1009.8 |
| 20260505054557 | 51 | 162 | 0.0 | 0.0 | 0.00 | 0.01 | 0.00 | 1 | 1010.0 |
| 20260505053055 | 51 | 221 | 0.0 | 0.0 | 0.00 | 0.01 | 0.00 | 1 | 1010.0 |
| 20260505051551 | 51 | 259 | 0.0 | 0.0 | 0.00 | 0.01 | 0.00 | 1 | 1010.0 |
| 20260505041534 | 51 | 202 | 0.0 | 0.0 | 0.00 | 0.01 | 0.00 | 1 | 1009.7 |
| 20260505040039 | 51 | 165 | 0.0 | 0.0 | 0.00 | 0.01 | 0.00 | 1 | 1009.7 |
| 20260505034535 | 51 | 210 | 0.0 | 1.0 | 0.00 | 0.01 | 0.00 | 1 | 1009.6 |
| 20260505033023 | 51 | 186 | 0.0 | 0.0 | 0.00 | 0.01 | 0.00 | 1 | 1009.7 |
| 20260505031518 | 51 | 203 | 0.0 | 0.0 | 0.00 | 0.01 | 0.00 | 1 | 1009.8 |
| 20260505030017 | 51 | 214 | 0.0 | 0.0 | 0.00 | 0.01 | 0.00 | 1 | 1009.9 |
| 20260505024510 | 51 | 212 | 0.0 | 0.0 | 0.00 | 0.01 | 0.00 | 1 | 1010.0 |
| 20260505023008 | 51 | 219 | 0.0 | 0.0 | 0.00 | 0.01 | 0.00 | 1 | 1010.0 |
| 20260505021504 | 52 | 220 | 0.0 | 0.0 | 0.00 | 0.01 | 0.00 | 1 | 1010.0 |
| 20260505020059 | 52 | 188 | 0.0 | 0.0 | 0.00 | 0.01 | 0.00 | 1 | 1009.9 |
| 20260505014556 | 53 | 220 | 0.0 | 1.0 | 0.00 | 0.01 | 0.00 | 1 | 1010.0 |
| 20260505013052 | 53 | 206 | 0.0 | 0.0 | 0.00 | 0.01 | 0.00 | 1 | 1010.2 |
| 20260505011547 | 53 | 206 | 0.0 | 0.0 | 0.00 | 0.01 | 0.00 | 1 | 1010.2 |
| 20260505010056 | 53 | 215 | 0.0 | 0.0 | 0.00 | 0.01 | 0.00 | 1 | 1010.1 |
| 20260505004539 | 53 | 176 | 0.0 | 0.0 | 0.00 | 0.01 | 0.00 | 1 | 1010.1 |
| 20260505003039 | 53 | 196 | 0.0 | 0.0 | 0.00 | 0.01 | 0.00 | 1 | 1010.3 |